Phuket, Thailand

9:59 AM +07 on December 13, 2017 (GMT +0700)
Phuket International

Weather History for VTSP - December, 2011

Change the Weather History Date:

Wednesday, December 28, 2011

  Actual Average Record
Temperature  
Mean Temperature 82 °F -  
Max Temperature 89 °F 89 °F 95 °F (2000)
Min Temperature 74 °F 74 °F 70 °F (2013)
Cooling Degree Days 16    
Growing Degree Days 32 (Base 50)    
Moisture  
Dew Point 72 °F    
Average Humidity 71    
Maximum Humidity 84    
Minimum Humidity 54    
Precipitation  
Precipitation 0.00 in 0.06 in - ()
Sea Level Pressure  
Sea Level Pressure 29.86 in    
Wind  
Wind Speed 10 mph ()    
Max Wind Speed 17 mph    
Max Gust Speed -    
Visibility 4.5 miles    
Events Fog    
Averages and records for this station are not official NWS values.
T = Trace of Precipitation, MM = Missing Value Source: Averaged Metar Reports

Daily Weather History Graph

Daily Weather History Graph

Search for Another Location

Airport or City:

Trip Planner

Search our weather history database for the weather conditions in past years. The results will help you decide how hot, cold, wet, or windy it might be!

Date:

Astronomy

Dec. 28, 2011 Rise Set
Actual Time 6:38 AM +07 6:17 PM +07
Civil Twilight 6:15 AM +07 6:40 PM +07
Nautical Twilight 5:49 AM +07 7:06 PM +07
Astronomical Twilight 5:23 AM +07 7:32 PM +07
Moon 9:26 AM +07 (12/28) 9:37 PM +07 (12/28)
Length of Visible Light 12h 24m
Length of Day
11h 39m
Waxing Crescent, 14% of the Moon is Illuminated
Dec 28
Waxing Crescent
Jan 1
First Quarter
Jan 9
Full
Jan 16
Last Quarter
Jan 23
New

Hourly Weather History & Observations

Time (+07) Temp. Heat Index Dew Point Humidity Pressure Visibility Wind Dir Wind Speed Gust Speed Precip Events Conditions
12:00 AM 78.8 °F - 71.6 °F 78% 29.89 in 4.3 mi East 13.8 mph - N/A   Mostly Cloudy
12:30 AM 78.8 °F - 71.6 °F 78% 29.89 in 4.3 mi ENE 11.5 mph - N/A   Mostly Cloudy
1:00 AM 79 °F - 74 °F 79% 29.86 in 4 mi ENE 8.1 mph - -   Mist
1:00 AM 78.8 °F - 71.6 °F 78% 29.86 in 4.3 mi ENE 12.7 mph - N/A   Mostly Cloudy
1:30 AM 78.8 °F - 71.6 °F 78% 29.86 in 4.3 mi East 13.8 mph - N/A   Mostly Cloudy
2:00 AM 78.8 °F - 71.6 °F 78% 29.86 in 4.3 mi ENE 12.7 mph - N/A   Mostly Cloudy
3:30 AM 78.8 °F - 71.6 °F 78% 29.86 in 4.3 mi East 11.5 mph - N/A   Mostly Cloudy
4:00 AM 78.8 °F - 71.6 °F 78% 29.83 in 4.3 mi East 11.5 mph - N/A Fog Fog
5:00 AM 77.0 °F - 71.6 °F 83% 29.86 in - East 11.5 mph - N/A   Mostly Cloudy
5:30 AM 77.0 °F - 71.6 °F 83% 29.86 in 4.3 mi East 13.8 mph - N/A   Mostly Cloudy
6:00 AM 77.0 °F - 71.6 °F 83% 29.86 in 4.3 mi East 11.5 mph - N/A   Mostly Cloudy
6:30 AM 77.0 °F - 71.6 °F 83% 29.86 in 4.3 mi East 11.5 mph - N/A   Scattered Clouds
7:00 AM 78 °F - 74 °F 84% 29.86 in 5 mi East 9.2 mph - -   Mist
7:00 AM 77.0 °F - 71.6 °F 83% 29.89 in 5.0 mi ENE 15.0 mph - N/A   Scattered Clouds
7:30 AM 78.8 °F - 71.6 °F 78% 29.89 in 5.0 mi ENE 11.5 mph - N/A   Scattered Clouds
8:00 AM 78.8 °F - 71.6 °F 78% 29.89 in 5.0 mi ENE 12.7 mph - N/A   Scattered Clouds
8:30 AM 80.6 °F 84.6 °F 71.6 °F 74% 29.92 in 5.0 mi East 15.0 mph - N/A   Mostly Cloudy
9:00 AM 82.4 °F 87.2 °F 71.6 °F 70% 29.92 in 5.0 mi East 12.7 mph - N/A   Mostly Cloudy
9:30 AM 82.4 °F 87.2 °F 71.6 °F 70% 29.92 in 4.3 mi East 13.8 mph - N/A   Mostly Cloudy
10:00 AM 84.2 °F 89.6 °F 71.6 °F 66% 29.92 in 4.3 mi East 13.8 mph - N/A   Mostly Cloudy
10:30 AM 84.2 °F 90.9 °F 73.4 °F 70% 29.92 in 4.3 mi East 13.8 mph - N/A   Mostly Cloudy
11:00 AM 86.0 °F 91.8 °F 71.6 °F 62% 29.89 in 4.3 mi East 15.0 mph - N/A   Mostly Cloudy
11:30 AM 86.0 °F 91.8 °F 71.6 °F 62% 29.89 in 5.0 mi East 17.3 mph - N/A   Mostly Cloudy
12:00 PM 86.0 °F 91.8 °F 71.6 °F 62% 29.86 in 5.0 mi East 15.0 mph - N/A   Mostly Cloudy
12:30 PM 87.8 °F 93.8 °F 71.6 °F 58% 29.86 in 5.0 mi East 15.0 mph - N/A   Mostly Cloudy
1:00 PM 87 °F - 73 °F 54% 29.87 in 4 mi East 10.4 mph - -   Haze
1:00 PM 87.8 °F 93.8 °F 71.6 °F 58% 29.83 in 5.0 mi East 13.8 mph - N/A   Mostly Cloudy
1:30 PM 87.8 °F 93.8 °F 71.6 °F 58% 29.83 in 5.0 mi East 13.8 mph - N/A   Mostly Cloudy
2:00 PM 87.8 °F 93.8 °F 71.6 °F 58% 29.80 in 5.0 mi East 11.5 mph - N/A   Mostly Cloudy
2:30 PM 87.8 °F 93.8 °F 71.6 °F 58% 29.80 in 5.0 mi East 11.5 mph - N/A   Mostly Cloudy
3:00 PM 89.6 °F 98.2 °F 73.4 °F 59% 29.80 in 5.0 mi East 10.4 mph - N/A   Mostly Cloudy
3:30 PM 87.8 °F 95.6 °F 73.4 °F 62% 29.80 in 5.0 mi East 11.5 mph - N/A   Mostly Cloudy
4:00 PM 86.0 °F 93.4 °F 73.4 °F 66% 29.80 in 5.0 mi ENE 9.2 mph - N/A   Mostly Cloudy
4:30 PM 87.8 °F 95.6 °F 73.4 °F 62% 29.80 in 4.3 mi East 9.2 mph - N/A   Mostly Cloudy
5:00 PM 86.0 °F 91.8 °F 71.6 °F 62% 29.80 in 4.3 mi East 10.4 mph - N/A   Mostly Cloudy
5:30 PM 86.0 °F 93.4 °F 73.4 °F 66% 29.80 in 3.7 mi ENE 6.9 mph - N/A   Mostly Cloudy
6:00 PM 84.2 °F 90.9 °F 73.4 °F 70% 29.80 in 3.7 mi ENE 5.8 mph - N/A   Mostly Cloudy
6:30 PM 84.2 °F 90.9 °F 73.4 °F 70% 29.83 in 4.3 mi ENE 3.5 mph - N/A   Mostly Cloudy
7:00 PM 83 °F - 75 °F 70% 29.82 in 4 mi Calm Calm - -   Mist
7:00 PM 84.2 °F 90.9 °F 73.4 °F 70% 29.83 in 4.3 mi Variable 2.3 mph - N/A   Mostly Cloudy
7:30 PM 82.4 °F 88.2 °F 73.4 °F 74% 29.83 in 4.3 mi ENE 3.5 mph - N/A   Mostly Cloudy
8:00 PM 82.4 °F 88.2 °F 73.4 °F 74% 29.86 in 4.3 mi ENE 5.8 mph - N/A   Mostly Cloudy
8:30 PM 82.4 °F 88.2 °F 73.4 °F 74% 29.86 in 4.3 mi ENE 3.5 mph - N/A   Mostly Cloudy
9:00 PM 80.6 °F 85.4 °F 73.4 °F 79% 29.86 in 4.3 mi ENE 3.5 mph - N/A   Mostly Cloudy
9:30 PM 80.6 °F 85.4 °F 73.4 °F 79% 29.86 in 4.3 mi Calm Calm - N/A   Mostly Cloudy
10:00 PM 82.4 °F 88.2 °F 73.4 °F 74% 29.89 in 4.3 mi ENE 3.5 mph - N/A   Mostly Cloudy
10:30 PM 80.6 °F 85.4 °F 73.4 °F 79% 29.89 in 4.3 mi NE 4.6 mph - N/A   Mostly Cloudy
11:00 PM 80.6 °F 84.6 °F 71.6 °F 74% 29.89 in 4.3 mi NE 3.5 mph - N/A   Mostly Cloudy
11:30 PM 80.6 °F 84.6 °F 71.6 °F 74% 29.89 in 4.3 mi ENE 2.3 mph - N/A   Mostly Cloudy